Tampico, México

11:37 AM CDT en Abril 25, 2018 (GMT -0500)
Gen Francisco Javier Mina

Tiempo Historia de MMTM - Abril, 2018

Change the Weather History Date:

Lunes, Abril 16, 2018

  Actual Average Record
Temperature  
Temperatura media 75 ° F -  
Temperatura máxima 88 ° F 85 ° F 102 ° F (1998)
Temperatura mínima 62 ° F 70 ° F 56 ° F (2014)
Cooling Degree Days 10    
Growing Degree Days 25 (Base 50)    
Moisture  
Punto de rocío 61 ° F    
Average Humidity 63    
Maximum Humidity 89    
Minimum Humidity 28    
Precipitación  
Precipitación 0.00 pul 0.04 pul - ()
Presión al nivel del mar  
Presión al nivel del mar 30.20 pul    
Viento  
Velocidad del viento 3 mph ()    
Velocidad máxima del viento 16 mph    
Max Gust Speed -    
Visibilidad 9.3 Millas    
Eventos      
Averages and records for this station are not official NWS values.
T = Trace of Precipitation, MM = Missing Value Source: Averaged Metar Reports

Daily Weather History Graph

Daily Weather History Graph

Search for Another Location

Airport or City:

Astronomía

Apr. 16, 2018 Salida Puesta
Hora real 7:10 AM CDT 7:52 PM CDT
Crepúsculo civil 6:47 AM CDT 8:14 PM CDT
Crepúsculo náutico 6:20 AM CDT 8:41 PM CDT
Crepúsculo astronómico 5:53 AM CDT 9:09 PM CDT
Luna 7:48 AM CDT (4/16) 8:43 PM CDT (4/16)
Horas de luz 13h 27m
Horas de luz
12h 41m
Luna nueva, 0% of the Moon is Illuminated
Abr 16
Luna nueva
Abr 22
Cuarto creciente
Abr 29
Luna llena
May 7
Cuarto menguante
May 15
Nueva

Hourly Weather History & Observations

Hora (CDT) Temp. Índice de calor Punto de rocío Humedad Presión Visibilidad Wind Dir Velocidad del viento Velocidad de ráfagas Precip Eventos Condiciones
3:45 AM 64 ° F - 58 ° F 77% 30.27 pul 6 mi Sur 4.5 mph - -  
4:51 AM 66.2 ° F - 57.2 ° F 73% 30.21 pul 5.0 mi Sin viento Sin viento - N/A   Despejado
6:40 AM 64 ° F - 61 ° F 86% 30.25 pul 6 mi Oeste 2.2 mph - -  
6:41 AM 62.6 ° F - 59.0 ° F 88% 30.22 pul 7.0 mi Sin viento Sin viento - N/A   Despejado
7:44 AM 66.2 ° F - 60.8 ° F 83% 30.23 pul 7.0 mi Sin viento Sin viento - N/A   Despejado
8:51 AM 69.8 ° F - 62.6 ° F 78% 30.24 pul 8.0 mi Sin viento Sin viento - N/A   Despejado
9:44 AM 73.4 ° F - 59.0 ° F 61% 30.25 pul 10.0 mi Norte - - N/A   Despejado
10:40 AM 77.0 ° F - 59.0 ° F 54% 30.26 pul 10.0 mi Norte - - N/A   Despejado
11:42 AM 78.8 ° F - 59.0 ° F 51% 30.26 pul 10.0 mi Norte - - N/A   Nubes dispersas
12:45 PM 87 ° F - 59 ° F 28% 30.27 pul 16 mi SE 8.9 mph - -   Nubes dispersas
12:51 PM 78.8 ° F - 75.2 ° F 89% 30.27 pul 10.0 mi Norte - - N/A   Nubes dispersas
1:45 PM 78.8 ° F - 59.0 ° F 51% 30.20 pul 10.0 mi Norte - - N/A   Nubes dispersas
2:42 PM 80.6 ° F 81.5 ° F 60.8 ° F 51% 30.19 pul 10.0 mi Norte - - N/A   Nubes dispersas
3:42 PM 78.8 ° F - 60.8 ° F 54% 30.17 pul 10.0 mi Norte - - N/A   Nubes dispersas
4:43 PM 78.8 ° F - 59.0 ° F 51% 30.14 pul 10.0 mi Norte - - N/A   Parcialmente nublado
5:44 PM 77.0 ° F - 60.8 ° F 57% 30.12 pul 10.0 mi Norte - - N/A   Parcialmente nublado
6:42 PM 81 ° F - 60 ° F 39% 30.16 pul 16 mi ESE 15.7 mph - -   Despejado
6:45 PM 75.2 ° F - 60.8 ° F 61% 30.12 pul 10.0 mi Norte - - N/A   Parcialmente nublado
7:42 PM 73.4 ° F - 60.8 ° F 65% 30.13 pul 10.0 mi Norte - - N/A   Nubes dispersas
8:42 PM 73.4 ° F - 60.8 ° F 65% 30.15 pul 8.0 mi Norte - - N/A   Parcialmente nublado
9:43 PM 73.4 ° F - 60.8 ° F 65% 30.17 pul 8.0 mi Norte - - N/A   Parcialmente nublado
10:41 PM 73.4 ° F - 60.8 ° F 65% 30.19 pul 8.0 mi Norte - - N/A   Parcialmente nublado